Time,TemperatureF,DewpointF,PressureIn,WindDirection,WindDirectionDegrees,WindSpeedMPH,WindSpeedGustMPH,Humidity,HourlyPrecipIn,Conditions,Clouds,dailyrainin,SoftwareType,DateUTC
2013-03-25 00:00:00,47.0,-99.9,-100.00,South,170,1.0,-999.0,-999,-99.99,,,-99.99,,2013-03-25 07:00:00,
2013-03-25 01:00:00,48.0,-99.9,-100.00,ENE,73,2.0,-999.0,-999,-99.99,,,-99.99,,2013-03-25 08:00:00,
2013-03-25 02:00:00,46.0,-99.9,-100.00,NNE,16,2.0,-999.0,-999,-99.99,,,-99.99,,2013-03-25 09:00:00,
2013-03-25 03:00:00,42.0,-99.9,-100.00,NNE,29,1.0,-999.0,-999,-99.99,,,-99.99,,2013-03-25 10:00:00,
2013-03-25 04:00:00,40.0,-99.9,-100.00,North,357,1.0,-999.0,-999,-99.99,,,-99.99,,2013-03-25 11:00:00,
2013-03-25 05:00:00,39.0,-99.9,-100.00,WSW,245,1.0,-999.0,-999,-99.99,,,-99.99,,2013-03-25 12:00:00,
2013-03-25 06:00:00,38.0,-99.9,-100.00,SSW,204,1.0,-999.0,-999,-99.99,,,-99.99,,2013-03-25 13:00:00,
2013-03-25 07:00:00,37.0,-99.9,-100.00,WSW,252,1.0,-999.0,-999,-99.99,,,-99.99,,2013-03-25 14:00:00,
2013-03-25 08:00:00,39.0,-99.9,-100.00,SW,222,1.0,-999.0,-999,-99.99,,,-99.99,,2013-03-25 15:00:00,
2013-03-25 09:00:00,46.0,-99.9,-100.00,NNE,29,2.0,-999.0,-999,-99.99,,,-99.99,,2013-03-25 16:00:00,
2013-03-25 10:00:00,53.0,-99.9,-100.00,NW,322,1.0,-999.0,-999,-99.99,,,-99.99,,2013-03-25 17:00:00,
2013-03-25 11:00:00,53.0,-99.9,-100.00,NNW,348,3.0,-999.0,-999,-99.99,,,-99.99,,2013-03-25 18:00:00,
2013-03-25 12:00:00,56.0,-99.9,-100.00,NNW,335,5.0,-999.0,-999,-99.99,,,-99.99,,2013-03-25 19:00:00,
2013-03-25 13:00:00,58.0,-99.9,-100.00,NW,321,6.0,-999.0,-999,-99.99,,,-99.99,,2013-03-25 20:00:00,
2013-03-25 14:00:00,59.0,-99.9,-100.00,WNW,303,6.0,-999.0,-999,-99.99,,,-99.99,,2013-03-25 21:00:00,
2013-03-25 15:00:00,61.0,-99.9,-100.00,WNW,297,6.0,-999.0,-999,-99.99,,,-99.99,,2013-03-25 22:00:00,
2013-03-25 16:00:00,62.0,-99.9,-100.00,WNW,290,5.0,-999.0,-999,-99.99,,,-99.99,,2013-03-25 23:00:00,
2013-03-25 18:00:00,60.0,-99.9,-100.00,WNW,295,6.0,-999.0,-999,-99.99,,,-99.99,,2013-03-26 01:00:00,
2013-03-25 19:00:00,59.0,-99.9,-100.00,WNW,303,6.0,-999.0,-999,-99.99,,,-99.99,,2013-03-26 02:00:00,
2013-03-25 21:00:00,54.0,-99.9,-100.00,WNW,294,5.0,-999.0,-999,-99.99,,,-99.99,,2013-03-26 04:00:00,
2013-03-25 22:00:00,53.0,-99.9,-100.00,NW,310,5.0,-999.0,-999,-99.99,,,-99.99,,2013-03-26 05:00:00,
2013-03-25 23:00:00,52.0,-99.9,-100.00,WNW,301,3.0,-999.0,-999,-99.99,,,-99.99,,2013-03-26 06:00:00,